sat.trackr.live / text

‹ back to catalog

STARLINK-6288

NORAD 56398 · 2023-061AA

PAYLOAD ACTIVE UNKNOWN

§ Identity

Operator
Country
US
Launch date
2023-05-04
Launch site
AFETR
Launch vehicle
Mass (kg)
RCS (m²)

Purposes: comms

External: N2YO · Heavens-Above · Gunter

§ Orbital elements

Epoch: 2026-09-20T11:01:53.514624Z

Period
94.27 min
Inclination
43.0033°
Eccentricity
0.0001416
Mean motion
15.27578976 rev/d
Perigee alt
482.1 km
Apogee alt
484.0 km
Semi-major
6,861.2 km
B*
5.1196e-5
RAAN
166.9539°
Arg perigee
268.3513°
Mean anomaly
91.7176°
Rev number
18,666

§ Raw data

STARLINK-62881 56398U 23061AA  26263.45964716  .00001147  00000+0  51196-4 0  99922 56398  43.0033 166.9539 0001416 268.3513  91.7176 15.27578976186660

JSON: /api/v1/satellites/56398 · /tle

For live sub-satellite position, see the globe view (requires WebGL).

§ Visibility from observer

Set your observer location to see the next 7 days of passes ≥ 10°. The values pass through the URL so the page stays shareable.

No JS? Fill the form by hand. The geolocation button needs JavaScript.